Location: Boiro
(42.6475°N, 8.8834°W)
Time: 17:39:06
(UTC+01:00)

Tiros 1 - Pass Details

Date: 14 December 2021
Orbit: 630 x 663 km, 48.4° (Epoch: 20 January)

Event Time Altitude Azimuth Distance (km) Brightness Sun altitude
Rises 20:38:47 0° 295° (WNW) 2,925 11.4 -27.8°
Reaches altitude 10° 20:41:07 10° 298° (WNW) 2,019 10.3 -28.2°
Enters shadow 20:44:04 37° 314° (NW) 984 8.3 -28.7°
Maximum altitude 20:45:44 64° 21° (NNE) 708 - -29.0°
Drops below altitude 10° 20:50:23 10° 103° (ESE) 2,033 - -29.9°
Sets 20:52:45 0° 106° (ESE) 2,947 - -30.3°
